Weather History for KNQA - December, 2013

Change the Weather History Date:

Saturday, December 7, 2013

  Actual Average Record
Temperature  
Mean Temperature 22 °F -  
Max Temperature 26 °F 53 °F 66 °F (2001)
Min Temperature 19 °F 37 °F 15 °F (2006)
Degree Days  
Heating Degree Days 42    
Moisture  
Dew Point 21 °F    
Average Humidity 89    
Maximum Humidity 93    
Minimum Humidity 86    
Precipitation  
Precipitation 0.00 in - - ()
Sea Level Pressure  
Sea Level Pressure 30.50 in    
Wind  
Wind Speed 6 mph (North)    
Max Wind Speed 9 mph    
Max Gust Speed -    
Visibility 10 miles    
Events      
Averages and records for this station are not official NWS values.
T = Trace of Precipitation, MM = Missing Value Source: NWS Daily Summary

Daily Weather History Graph

Daily Weather History Graph

Search for Another Location

Airport or City:

Trip Planner

Search our weather history database for the weather conditions in past years. The results will help you decide how hot, cold, wet, or windy it might be!

Date:

Astronomy

Dec. 07, 2013 Rise Set
Actual Time 6:55 AM CST 4:46 PM CST
Civil Twilight 6:27 AM CST 5:14 PM CST
Nautical Twilight 5:55 AM CST 5:46 PM CST
Astronomical Twilight 5:24 AM CST 6:17 PM CST
Moon 10:47 AM CST (12/7) 10:20 PM CST (12/7)
Length of Visible Light 10h 47m
Length of Day
9h 51m
Waxing Crescent, 29% of the Moon is Illuminated
Dec 7
Waxing Crescent
Dec 9
First Quarter
Dec 17
Full
Dec 25
Last Quarter
Jan 1
New

Hourly Weather History & Observations

Time (CST) Temp. Windchill Dew Point Humidity Pressure Visibility Wind Dir Wind Speed Gust Speed Precip Events Conditions
12:55 AM 23.0 °F 14.7 °F 21.2 °F 93% 30.47 in 10.0 mi North 6.9 mph - N/A   Overcast
1:55 AM 23.0 °F 14.7 °F 21.2 °F 93% 30.47 in 10.0 mi North 6.9 mph - N/A   Overcast
2:15 AM 23.0 °F 15.8 °F 19.4 °F 86% 30.47 in 10.0 mi North 5.8 mph - N/A   Overcast
2:35 AM 23.0 °F 14.7 °F 21.2 °F 93% 30.48 in 10.0 mi North 6.9 mph - N/A   Overcast
2:55 AM 23.0 °F 15.8 °F 21.2 °F 93% 30.49 in 10.0 mi NNW 5.8 mph - N/A   Overcast
3:15 AM 23.0 °F 15.8 °F 19.4 °F 86% 30.49 in 10.0 mi North 5.8 mph - N/A   Overcast
3:35 AM 21.2 °F 12.6 °F 19.4 °F 93% 30.49 in 10.0 mi North 6.9 mph - N/A   Overcast
3:55 AM 21.2 °F 16.4 °F 19.4 °F 93% 30.50 in 10.0 mi North 3.5 mph - N/A   Overcast
4:15 AM 21.2 °F 10.9 °F 19.4 °F 93% 30.49 in 10.0 mi North 9.2 mph - N/A   Overcast
4:35 AM 21.2 °F 11.7 °F 17.6 °F 86% 30.50 in 10.0 mi North 8.1 mph - N/A   Overcast
4:55 AM 21.2 °F 11.7 °F 17.6 °F 86% 30.51 in 10.0 mi North 8.1 mph - N/A   Overcast
5:52 AM 19.4 °F 10.4 °F 17.6 °F 93% 30.53 in 10.0 mi North 6.9 mph - N/A   Overcast
6:52 AM 19.4 °F 12.8 °F 17.6 °F 93% 30.55 in 10.0 mi NNE 4.6 mph - N/A   Overcast
7:55 AM 21.2 °F 12.6 °F 17.6 °F 86% 30.56 in 10.0 mi North 6.9 mph - N/A   Overcast
8:55 AM 21.2 °F 14.9 °F 17.6 °F 86% 30.57 in 10.0 mi NNE 4.6 mph - N/A   Overcast
9:55 AM 24.8 °F 16.1 °F 21.2 °F 86% 30.59 in 10.0 mi North 8.1 mph - N/A   Overcast
10:55 AM 24.8 °F 17.9 °F 21.2 °F 86% 30.57 in 10.0 mi Variable 5.8 mph - N/A   Mostly Cloudy
11:55 AM 26.6 °F - 23.0 °F 86% 30.54 in 10.0 mi North - - N/A   Mostly Cloudy
12:55 PM 26.6 °F 20.0 °F 24.8 °F 93% 30.51 in 10.0 mi NNE 5.8 mph - N/A   Overcast
1:54 PM 26.6 °F 21.2 °F 24.8 °F 93% 30.49 in 10.0 mi NNE 4.6 mph - N/A   Overcast
2:53 PM 26.6 °F 18.2 °F 24.8 °F 93% 30.47 in 10.0 mi NNE 8.1 mph - N/A   Overcast
3:52 PM 26.6 °F 20.0 °F 23.0 °F 86% 30.47 in 10.0 mi North 5.8 mph - N/A   Overcast
5:54 PM 24.8 °F 17.9 °F 21.2 °F 86% 30.44 in 10.0 mi NNE 5.8 mph - N/A   Overcast
6:50 PM 24.8 °F 17.9 °F 21.2 °F 86% 30.44 in 10.0 mi NE 5.8 mph - N/A   Overcast